• în România
  • Lista ţărilor
  • Pe 7 zile
  • Temperatura apei
  • Hartă satelitară
  • Meteo pe hartă
  • Widget-uri
  • user-avatar
    Intrare

    Meteo pe oră la Lambaréné

    Astăzi, 28 Mai, Luni

    Timp Temperatura Precipitaţii Vânt Presiune Umiditate
    00:00 +25°C° 0 mm 1 m/s 755 mmHg 94%
    01:00 +25°C° 0 mm 1 m/s 755 mmHg 95%
    02:00 +25°C° 0 mm 1 m/s 755 mmHg 96%
    03:00 +25°C° 0 mm 1 m/s 755 mmHg 96%
    04:00 +24°C° 0 mm 1 m/s 755 mmHg 97%
    05:00 +25°C° 0 mm 1 m/s 755 mmHg 96%
    06:00 +25°C° 0 mm 1 m/s 755 mmHg 95%
    07:00 +25°C° 0 mm 1 m/s 755 mmHg 94%
    08:00 +26°C° 0 mm 1 m/s 756 mmHg 88%
    09:00 +28°C° 0 mm 1 m/s 756 mmHg 81%
    10:00 +29°C° 0 mm 1 m/s 756 mmHg 75%
    11:00 +30°C° 0 mm 1 m/s 756 mmHg 72%
    12:00 +30°C° 0 mm 1 m/s 755 mmHg 70%
    13:00 +31°C° 0 mm 1 m/s 755 mmHg 67%
    14:00 +31°C° 0,1 mm 1 m/s 754 mmHg 69%
    15:00 +30°C° 0,1 mm 1 m/s 754 mmHg 71%
    16:00 +30°C° 0,1 mm 1 m/s 753 mmHg 73%
    17:00 +29°C° 0,1 mm 1 m/s 754 mmHg 78%
    18:00 +28°C° 0,1 mm 1 m/s 754 mmHg 83%
    19:00 +27°C° 0,1 mm 1 m/s 754 mmHg 88%
    20:00 +27°C° 0 mm 1 m/s 755 mmHg 90%
    21:00 +26°C° 0 mm 1 m/s 755 mmHg 92%
    22:00 +26°C° 0 mm 1 m/s 755 mmHg 94%
    23:00 +25°C° 0 mm 1 m/s 755 mmHg 94%

    Mâine, 29 Mai, Marţi

    Timp Temperatura Precipitaţii Vânt Presiune Umiditate
    00:00 +25°C° 0 mm 1 m/s 755 mmHg 95%
    01:00 +25°C° 0 mm 1 m/s 755 mmHg 96%
    02:00 +25°C° 0 mm 1 m/s 755 mmHg 95%
    03:00 +25°C° 0 mm 1 m/s 755 mmHg 95%
    04:00 +25°C° 0 mm 1 m/s 754 mmHg 95%
    05:00 +25°C° 0 mm 1 m/s 754 mmHg 94%
    06:00 +25°C° 0 mm 1 m/s 755 mmHg 93%
    07:00 +25°C° 0 mm 1 m/s 755 mmHg 92%
    08:00 +26°C° 0 mm 1 m/s 755 mmHg 84%
    09:00 +28°C° 0 mm 1 m/s 756 mmHg 76%
    10:00 +30°C° 0 mm 1 m/s 756 mmHg 69%
    11:00 +30°C° 0 mm 1 m/s 755 mmHg 66%
    12:00 +31°C° 0 mm 1 m/s 755 mmHg 64%
    13:00 +32°C° 0 mm 1 m/s 754 mmHg 62%
    14:00 +32°C° 0 mm 1 m/s 754 mmHg 63%
    15:00 +31°C° 0 mm 1 m/s 753 mmHg 64%
    16:00 +31°C° 0 mm 2 m/s 752 mmHg 65%
    17:00 +30°C° 0 mm 2 m/s 753 mmHg 71%
    18:00 +29°C° 0 mm 1 m/s 753 mmHg 77%
    19:00 +27°C° 0 mm 1 m/s 754 mmHg 83%
    20:00 +27°C° 0,2 mm 1 m/s 754 mmHg 85%
    21:00 +26°C° 0,2 mm 1 m/s 755 mmHg 88%
    22:00 +26°C° 0,2 mm 1 m/s 755 mmHg 90%
    23:00 +25°C° 0,1 mm 1 m/s 755 mmHg 91%

    Poimâine, 30 Mai, Miercuri

    Timp Temperatura Precipitaţii Vânt Presiune Umiditate
    00:00 +25°C° 0,1 mm 1 m/s 755 mmHg 92%
    01:00 +25°C° 0,1 mm 1 m/s 755 mmHg 94%
    02:00 +25°C° 0,2 mm 1 m/s 754 mmHg 94%
    03:00 +22°C° 0,2 mm 0 m/s 754 mmHg 95%
    04:00 +22°C° 0,2 mm 0 m/s 754 mmHg 96%
    05:00 +22°C° 0 mm 0 m/s 754 mmHg 95%
    06:00 +22°C° 0 mm 0 m/s 754 mmHg 94%
    07:00 +23°C° 0 mm 0 m/s 754 mmHg 94%
    08:00 +24°C° 0 mm 0 m/s 755 mmHg 85%
    09:00 +28°C° 0 mm 1 m/s 755 mmHg 77%
    10:00 +30°C° 0 mm 1 m/s 755 mmHg 68%
    11:00 +32°C° 0 mm 1 m/s 755 mmHg 63%
    12:00 +34°C° 0 mm 1 m/s 754 mmHg 57%
    13:00 +35°C° 0 mm 1 m/s 754 mmHg 52%
    14:00 +35°C° 0 mm 1 m/s 753 mmHg 54%
    15:00 +34°C° 0 mm 1 m/s 752 mmHg 56%
    16:00 +33°C° 0 mm 1 m/s 752 mmHg 59%
    17:00 +31°C° 0,7 mm 1 m/s 752 mmHg 68%
    18:00 +29°C° 0,7 mm 2 m/s 753 mmHg 77%
    19:00 +27°C° 0,7 mm 2 m/s 753 mmHg 86%
    20:00 +27°C° 0,7 mm 2 m/s 754 mmHg 88%
    21:00 +27°C° 0,7 mm 2 m/s 755 mmHg 89%
    22:00 +26°C° 0,7 mm 1 m/s 755 mmHg 91%
    23:00 +26°C° 0 mm 1 m/s 755 mmHg 92%

    31 Mai, Joi

    Timp Temperatura Precipitaţii Vânt Presiune Umiditate
    00:00 +26°C° 0 mm 1 m/s 755 mmHg 92%
    01:00 +26°C° 0 mm 1 m/s 755 mmHg 92%
    02:00 +25°C° 0 mm 1 m/s 754 mmHg 93%
    03:00 +25°C° 0 mm 1 m/s 754 mmHg 93%
    04:00 +25°C° 0 mm 1 m/s 753 mmHg 93%
    05:00 +25°C° 0 mm 1 m/s 754 mmHg 93%
    06:00 +25°C° 0 mm 1 m/s 754 mmHg 92%
    07:00 +25°C° 0 mm 1 m/s 755 mmHg 92%
    08:00 +27°C° 0 mm 1 m/s 755 mmHg 84%
    09:00 +29°C° 0 mm 1 m/s 755 mmHg 75%
    10:00 +29°C° 0 mm 0 m/s 756 mmHg 67%
    11:00 +30°C° 0 mm 0 m/s 755 mmHg 62%
    12:00 +32°C° 0 mm 0 m/s 754 mmHg 58%
    13:00 +33°C° 0 mm 0 m/s 753 mmHg 53%
    14:00 +32°C° 0 mm 0 m/s 753 mmHg 55%
    15:00 +32°C° 0 mm 0 m/s 752 mmHg 56%
    16:00 +31°C° 0 mm 0 m/s 752 mmHg 58%
    17:00 +30°C° 0 mm 0 m/s 752 mmHg 63%
    18:00 +29°C° 0 mm 0 m/s 753 mmHg 69%
    19:00 +27°C° 0 mm 0 m/s 753 mmHg 74%
    20:00 +27°C° 0 mm 0 m/s 754 mmHg 77%
    21:00 +28°C° 0 mm 1 m/s 754 mmHg 80%
    22:00 +28°C° 0 mm 1 m/s 755 mmHg 82%
    23:00 +27°C° 0 mm 1 m/s 755 mmHg 85%

    1 Iunie, Vineri

    Timp Temperatura Precipitaţii Vânt Presiune Umiditate
    00:00 +27°C° 0 mm 1 m/s 754 mmHg 88%
    01:00 +26°C° 0 mm 1 m/s 754 mmHg 91%
    02:00 +26°C° 0 mm 1 m/s 754 mmHg 91%
    03:00 +26°C° 0 mm 1 m/s 753 mmHg 92%
    04:00 +26°C° 0 mm 1 m/s 753 mmHg 92%
    05:00 +26°C° 0 mm 1 m/s 753 mmHg 92%
    06:00 +26°C° 0 mm 1 m/s 754 mmHg 91%
    07:00 +26°C° 0 mm 1 m/s 754 mmHg 91%
    08:00 +26°C° 0 mm 1 m/s 755 mmHg 89%
    09:00 +27°C° 0 mm 1 m/s 755 mmHg 87%
    10:00 +25°C° 0 mm 0 m/s 756 mmHg 86%
    11:00 +28°C° 0,1 mm 1 m/s 755 mmHg 84%
    12:00 +28°C° 0,1 mm 1 m/s 754 mmHg 83%
    13:00 +28°C° 0,1 mm 1 m/s 754 mmHg 81%
    14:00 +29°C° 0 mm 1 m/s 753 mmHg 76%
    15:00 +31°C° 0 mm 1 m/s 753 mmHg 71%
    16:00 +32°C° 0 mm 2 m/s 752 mmHg 66%
    17:00 +30°C° 0,1 mm 1 m/s 753 mmHg 72%
    18:00 +29°C° 0,1 mm 1 m/s 753 mmHg 78%
    19:00 +28°C° 0,1 mm 1 m/s 754 mmHg 84%
    20:00 +27°C° 0 mm 1 m/s 754 mmHg 86%
    21:00 +27°C° 0 mm 1 m/s 755 mmHg 89%
    22:00 +27°C° 0 mm 2 m/s 755 mmHg 91%
    23:00 +26°C° 0 mm 2 m/s 755 mmHg 92%

    2 Iunie, Sâmbătă

    Timp Temperatura Precipitaţii Vânt Presiune Umiditate
    00:00 +26°C° 0 mm 2 m/s 755 mmHg 93%
    01:00 +26°C° 0 mm 2 m/s 754 mmHg 93%
    02:00 +26°C° 0 mm 1 m/s 754 mmHg 93%
    03:00 +26°C° 0 mm 1 m/s 754 mmHg 93%
    04:00 +26°C° 0 mm 1 m/s 754 mmHg 93%
    05:00 +26°C° 0 mm 1 m/s 754 mmHg 93%
    06:00 +26°C° 0 mm 1 m/s 755 mmHg 93%
    07:00 +26°C° 0 mm 1 m/s 755 mmHg 92%
    08:00 +27°C° 0 mm 1 m/s 755 mmHg 84%
    09:00 +29°C° 0 mm 1 m/s 756 mmHg 76%
    10:00 +31°C° 0 mm 1 m/s 756 mmHg 68%
    11:00 +32°C° 0 mm 1 m/s 755 mmHg 64%
    12:00 +33°C° 0 mm 1 m/s 754 mmHg 60%
    13:00 +35°C° 0 mm 1 m/s 753 mmHg 55%
    14:00 +34°C° 0 mm 1 m/s 753 mmHg 56%
    15:00 +34°C° 0 mm 1 m/s 752 mmHg 57%
    16:00 +33°C° 0 mm 1 m/s 752 mmHg 59%
    17:00 +32°C° 0,2 mm 1 m/s 752 mmHg 66%
    18:00 +30°C° 0,2 mm 1 m/s 753 mmHg 74%
    19:00 +29°C° 0,2 mm 2 m/s 753 mmHg 81%
    20:00 +28°C° 0,2 mm 2 m/s 754 mmHg 84%
    21:00 +27°C° 0,2 mm 2 m/s 754 mmHg 87%
    22:00 +27°C° 0,2 mm 2 m/s 755 mmHg 91%
    23:00 +26°C° 0 mm 2 m/s 755 mmHg 91%
    Arată mai mult